Location: Del Amo
(33.8464°N, 118.2104°W)
Time: 19:06:15
(UTC+00:00)

Vanguard 1 Rocket - Pass Details

Date: 19 September 2024
Orbit: 650 x 4218 km, 34.3° (Epoch: 04 October)

Event Time Altitude Azimuth Distance (km) Brightness Sun altitude
Rises 17:24:27 0° 289° (WNW) 7,684 11.7 43.4°
Reaches altitude 10° 17:29:39 10° 283° (WNW) 6,972 11.6 44.2°
Maximum altitude 17:52:12 44° 222° (SW) 5,089 11.7 47.7°
Drops below altitude 10° 18:12:44 10° 158° (SSE) 6,313 12.5 50.6°
Sets 18:17:15 0° 151° (SSE) 6,931 12.5 51.2°
